Home > Weather > Overland Park > Past weeks

Flag for USA Weather for the Past 2 Weeks in Overland Park, Kansas, USA

Now
74 °F

Sunny.


Feels Like: 77 °F
Forecast: 50 / 82 °F
Wind: 10 mph from Southwest

Location: Johnson County Executive Airport

Current Time: May 6, 2016 at 1:58:41 PM

Latest Report: May 6, 2016 at 12:53 PM


Visibility: 10 mi

Pressure: 30.06 "Hg

Humidity: 41%

Dew Point: 49 °F

Location of Overland ParkLocation

Historic Weather in Overland Park — Graph

°F

Overland Park Temperature Yesterday

Maximum temperature yesterday: 73 °F (at 5:53 PM)
Minimum temperature yesterday: 48 °F (at 5:53 AM)
Average temperature yesterday: 61 °F

High & Low Weather Summary for the Past Weeks

 TemperatureHumidityPressure
High76 °F (Apr 23, 3:53 PM)100% (Apr 27, 3:53 AM)30.14 "Hg (Apr 27, 3:53 AM)
Low44 °F (Apr 28, 4:53 AM)23% (May 5, 3:53 PM)29.44 "Hg (Apr 27, 4:53 AM)
Average59 °F70%29.89 "Hg
* Reported Apr 21 12:53 PM — May 6 12:53 PM, Overland Park, Weather by CustomWeather, © 2016

Note: Actual official high and low records may vary slightly from our data, if they occured in-between our weather recording intervals... More about our weather records

Advertising

Overland Park Weather History for the Previous 24 Hours

Scroll right to see more
 ConditionsComfort  
Time TempWeatherWind HumidityBarometerVisibility
12:53 PM
Fri, May 6
74 °FSunny.10 mph41%30.06 "Hg10 mi
11:53 AM72 °FSunny.10 mph43%30.08 "Hg10 mi
10:53 AM70 °FSunny.8 mph44%30.08 "Hg10 mi
9:53 AM66 °FSunny.8 mph47%30.08 "Hg10 mi
8:53 AM61 °FSunny.8 mph52%30.08 "Hg10 mi
7:53 AM55 °FSunny.5 mph67%30.07 "Hg10 mi
6:53 AM50 °FClear.3 mph71%30.06 "Hg10 mi
5:53 AM50 °FClear.3 mph71%30.05 "Hg10 mi
4:53 AM50 °FClear.3 mph71%30.05 "Hg10 mi
3:53 AM52 °FClear.No wind61%30.04 "Hg10 mi
2:53 AM52 °FClear.3 mph72%30.04 "Hg10 mi
1:53 AM53 °FClear.No wind69%30.04 "Hg10 mi
12:53 AM54 °FClear.No wind69%30.04 "Hg10 mi
11:53 PM
Thu, May 5
55 °FClear.No wind62%30.04 "Hg10 mi
10:53 PM56 °FClear.No wind70%30.04 "Hg10 mi
9:53 PM58 °FClear.No wind58%30.03 "Hg10 mi
8:53 PM65 °FSunny.No wind36%30.01 "Hg10 mi
7:53 PM67 °FSunny.6 mph33%30.01 "Hg10 mi
6:53 PM71 °FSunny.5 mph27%30.01 "Hg10 mi
5:53 PM73 °FSunny.7 mph25%30.02 "Hg10 mi
4:53 PM71 °FSunny.3 mph27%30.03 "Hg10 mi
3:53 PM72 °FSunny.5 mph23%30.04 "Hg10 mi
2:53 PM71 °FSunny.9 mph27%30.06 "Hg10 mi
1:53 PM70 °FSunny.7 mph28%30.06 "Hg10 mi
Weather by CustomWeather, © 2016

See weather overviewHow to use our weather pages